STARLINK-1587, 46157

Orbit data source: Space-Track

STARLINK-1587, 46157 is a payload satellite owned by SpaceX/Seattle (US) in LEO that was launched on Tue, 18 Aug 2020 UTC via an FALCON 9 launch vehicle from the Air Force Eastern Test Range (AFETR). Payload-class satellites include a variety of spacecraft equipped with specific instruments for various scientific and technological missions. These include communications satellites like Starlink; space stations such as the ISS; scientific satellites like the Hubble; Earth observation satellites from companies like Planet Labs, Umbra, and HawkEye 360; GPS; miniature CubeSats for education and research; and military/defense satellites.

Loading next visibility...
Identifier
46157, 2020-057AS
Orbit
LEO
Country
Flag of USUS
Related business
Manufacturer
SpaceX/Seattle
Mission
Partially operational Commercial Communications
Bus & Motor
STARLINK, Unknown motor
Mass
260 kg wet, ~248 kg dry
Launch date (UTC)
2020-08-18 (5 years ago)
Launch vehicle
FALCON 9
Launch site
Air Force Eastern Test Range (AFETR)
Object type
Payload
Rocket body
Debris
Shape & HBR
Box + 1 Pan, 10.1 m
Radar Cross Section
13.562 m², Large (>1 m²)

Expand to show TLE details & history
Last TLE update: 7 hours ago

TLE from 7 hours ago
0 STARLINK-1587
1 46157U 20057AS  25311.00003472  .00104976  00000-0  23459-2 0  9997
2 46157  53.0512  97.0627 0007630 237.4407  96.6030 15.42676384  5943
Epoch: 2025-11-07T00:00Z
TLE epoch observation values (Epoch: 2025-11-07T00:00:02.999Z)
Latitude
-20.59226°
Longitude
34.27815°
Altitude
444.558 km
Speed
7.645 km/s
True Right ascension
05h 22m 57s
True Declination
-20° 28' 27"
Sunlit
Object was in full shadow at epoch
Visualization orbit readout
Latitude
Unknown
Longitude
Unknown
Altitude
Unknown
Speed
Unknown
Apparent Right ascension
Unknown
Apparent Declination
Unknown
Sunlit
N/A
Visualization observer readout
Local Sidereal Time
02:58:37
Azimuth
Unknown
Elevation
Unknown
Doppler factor
Unknown
Orbital elements
Apogee altitude
443.691 km
Perigee altitude
433.288 km
Semi-major axis
6,816.627 km
Eccentricity
0.00076
Inclination
53.0512°
RAAN
97.0627°
Arg. of periapsis
237.4407°
True anomaly
96.68984°
Mean anomaly
96.603°
Eccentric anomaly
96.64642°
Mean motion
3.85646 °/min
Orbital period
93.35 mins
BSTAR
0.0023459
Loading maneuver chart data...
Computing Atmospheric mass density...
Loading historical data...
Loading historical data...
Loading historical data...
Loading historical data...
Loading historical data...
Loading historical data...
Loading historical data...

Documentation

Showing up to 5 results
|